Location: Unspecified
(35.6961°N, 0.0000°E)
Time: 01:52:08
(UTC+00:00)

Vanguard 2 Rocket - Pass Details

Date: 29 May 2019
Orbit: 554 x 3326 km, 32.9° (Epoch: 17 June)

Event Time Altitude Azimuth Distance (km) Brightness Sun altitude
Rises 08:08:44 0° 277° (W) 7,027 10.9 38.6°
Reaches altitude 10° 08:13:55 10° 276° (W) 5,733 10.6 39.7°
Maximum altitude 08:29:56 69° 198° (SSW) 2,080 9.3 42.9°
Drops below altitude 10° 08:38:54 10° 117° (ESE) 3,387 10.7 44.7°
Sets 08:41:11 0° 114° (ESE) 4,086 10.9 45.2°
